This is the latest recevied weather packets stored in our database for station/object K4HOG. If no packets are shown the sender has not sent any weather packets the latest 10 day(s).
| Time | Temp. | Humidity | Pressure | Rain* | Wind** | Luminosity | Snow |
|---|---|---|---|---|---|---|---|
| 1777761469 | 21.67° C | 97% | 1010.2 hPa | 0 mm | - | 62 W/m² | - |
| 1777761168 | 21.67° C | 98% | 1010.4 hPa | 0 mm | - | 47 W/m² | - |
| 1777760865 | 21.67° C | 97% | 1010.1 hPa | 0 mm | - | 38 W/m² | - |
| 1777760561 | 21.67° C | 97% | 1010.2 hPa | 0 mm | - | 40 W/m² | - |
| 1777760257 | 21.67° C | 97% | 1010.2 hPa | 0 mm | - | 72 W/m² | - |
| 1777759954 | 21.67° C | 98% | 1010.1 hPa | 0 mm | - | 66 W/m² | - |
| 1777759651 | 21.67° C | 98% | 1009.8 hPa | 0 mm | - | 55 W/m² | - |
| 1777759347 | 21.67° C | 97% | 1009.6 hPa | 0 mm | - | 58 W/m² | - |
| 1777759044 | 21.67° C | 98% | 1009.3 hPa | 0 mm | - | 71 W/m² | - |
| 1777758741 | 21.11° C | 98% | 1009.2 hPa | 0 mm | - | 64 W/m² | - |
| 1777758438 | 21.11° C | 98% | 1009 hPa | 0 mm | - | 67 W/m² | - |
| 1777758135 | 21.11° C | 97% | 1008.8 hPa | 0 mm | - | 60 W/m² | - |
| 1777757832 | 21.11° C | 97% | 1009 hPa | 0 mm | - | 59 W/m² | - |
| 1777757530 | 21.67° C | 97% | 1009.3 hPa | 0 mm | - | 49 W/m² | - |
| 1777757228 | 21.11° C | 97% | 1009.6 hPa | 0 mm | - | 59 W/m² | - |
| 1777756926 | 21.11° C | 97% | 1009.4 hPa | 0 mm | - | 75 W/m² | - |
| 1777756622 | 21.67° C | 97% | 1009.7 hPa | 0 mm | - | 77 W/m² | - |
| 1777756319 | 21.11° C | 97% | 1009.1 hPa | 0 mm | - | 74 W/m² | - |
| 1777756016 | 21.11° C | 97% | 1009.1 hPa | 0 mm | - | 75 W/m² | - |
| 1777755713 | 21.11° C | 97% | 1009.5 hPa | 0 mm | - | 78 W/m² | - |
| 1777755410 | 21.11° C | 97% | 1009.7 hPa | 0 mm | - | 93 W/m² | - |
| 1777755106 | 21.11° C | 97% | 1009.7 hPa | 0 mm | - | 121 W/m² | - |
| 1777754803 | 21.11° C | 97% | 1009.6 hPa | 0 mm | - | 113 W/m² | - |
| 1777754501 | 21.11° C | 97% | 1009.7 hPa | 0 mm | - | 159 W/m² | - |
| 1777754198 | 21.11° C | 97% | 1009.7 hPa | 0 mm | - | 162 W/m² | - |
* Rain latest hour (hover to see other rain measurements)
** Current wind speed in m/s (hover to see current wind gust speed)